When you browse on this site, cookies collect data to enhance your experience and personalize the content and advertising you see.
Visit our Privacy Policy to learn more. By continuing to use the site, you agree to this use of cookies and data.
  • In Austria
  • List of Countries
  • For 7 days
  • Water Temperature
  • Satellite Maps
  • Weather Map
  • News
  • Weather Widgets
  • user-avatar
    Login

    Hourly Weather Voronino

    Today, 23 May, Thursday

    Time Temperature Precipitation Wind Pressure Humidity
    00:00 +14°C° 0 mm 1 mps 745 mmHg 86%
    01:00 +13°C° 0 mm 0 mps 745 mmHg 86%
    02:00 +13°C° 0 mm 0 mps 745 mmHg 86%
    03:00 +13°C° 0 mm 0 mps 745 mmHg 86%
    04:00 +13°C° 0 mm 0 mps 745 mmHg 86%
    05:00 +13°C° 0 mm 0 mps 745 mmHg 85%
    06:00 +16°C° 0 mm 1 mps 745 mmHg 78%
    07:00 +19°C° 0 mm 1 mps 745 mmHg 72%
    08:00 +21°C° 0 mm 1 mps 745 mmHg 65%
    09:00 +23°C° 0.3 mm 1 mps 745 mmHg 61%
    10:00 +24°C° 0.3 mm 1 mps 745 mmHg 58%
    11:00 +25°C° 0.3 mm 1 mps 745 mmHg 54%
    12:00 +25°C° 0.2 mm 1 mps 745 mmHg 53%
    13:00 +26°C° 0.2 mm 1 mps 745 mmHg 51%
    14:00 +26°C° 0.2 mm 1 mps 745 mmHg 50%
    15:00 +26°C° 0 mm 1 mps 745 mmHg 50%
    16:00 +26°C° 0 mm 1 mps 745 mmHg 49%
    17:00 +26°C° 0 mm 1 mps 745 mmHg 49%
    18:00 +24°C° 0 mm 1 mps 745 mmHg 56%
    19:00 +22°C° 0 mm 1 mps 745 mmHg 62%
    20:00 +20°C° 0 mm 1 mps 745 mmHg 68%
    21:00 +19°C° 0.1 mm 1 mps 745 mmHg 71%
    22:00 +19°C° 0.1 mm 1 mps 745 mmHg 75%
    23:00 +18°C° 0.1 mm 1 mps 745 mmHg 78%

    Tomorrow, 24 May, Friday

    Time Temperature Precipitation Wind Pressure Humidity
    00:00 +16°C° 0 mm 1 mps 745 mmHg 79%
    01:00 +16°C° 0 mm 1 mps 745 mmHg 81%
    02:00 +16°C° 0 mm 1 mps 745 mmHg 83%
    03:00 +16°C° 0 mm 1 mps 745 mmHg 84%
    04:00 +15°C° 0 mm 1 mps 745 mmHg 85%
    05:00 +14°C° 0 mm 0 mps 745 mmHg 86%
    06:00 +18°C° 0 mm 1 mps 746 mmHg 80%
    07:00 +20°C° 0 mm 1 mps 746 mmHg 74%
    08:00 +22°C° 0 mm 1 mps 746 mmHg 68%
    09:00 +23°C° 0.8 mm 1 mps 746 mmHg 66%
    10:00 +24°C° 0.8 mm 1 mps 746 mmHg 63%
    11:00 +25°C° 0.8 mm 1 mps 745 mmHg 61%
    12:00 +26°C° 0.1 mm 1 mps 745 mmHg 57%
    13:00 +26°C° 0.1 mm 1 mps 745 mmHg 52%
    14:00 +27°C° 0.1 mm 2 mps 745 mmHg 48%
    15:00 +26°C° 1 mm 2 mps 745 mmHg 56%
    16:00 +25°C° 1 mm 2 mps 745 mmHg 65%
    17:00 +24°C° 1 mm 2 mps 744 mmHg 73%
    18:00 +21°C° 0.7 mm 2 mps 744 mmHg 78%
    19:00 +20°C° 0.7 mm 2 mps 744 mmHg 84%
    20:00 +19°C° 0.7 mm 2 mps 744 mmHg 89%
    21:00 +18°C° 1.1 mm 2 mps 744 mmHg 91%
    22:00 +17°C° 1.1 mm 2 mps 744 mmHg 92%
    23:00 +17°C° 1.1 mm 2 mps 744 mmHg 94%

    Day after tomorrow, 25 May, Saturday

    Time Temperature Precipitation Wind Pressure Humidity
    00:00 +16°C° 0.1 mm 1 mps 744 mmHg 94%
    01:00 +16°C° 0.1 mm 1 mps 744 mmHg 95%
    02:00 +16°C° 0.1 mm 1 mps 744 mmHg 96%
    03:00 +15°C° 0 mm 1 mps 744 mmHg 96%
    04:00 +15°C° 0 mm 1 mps 744 mmHg 96%
    05:00 +15°C° 0 mm 2 mps 744 mmHg 97%
    06:00 +16°C° 0 mm 2 mps 744 mmHg 93%
    07:00 +18°C° 0 mm 2 mps 744 mmHg 89%
    08:00 +19°C° 0 mm 2 mps 744 mmHg 86%
    09:00 +20°C° 0.3 mm 2 mps 744 mmHg 79%
    10:00 +21°C° 0.3 mm 3 mps 744 mmHg 73%
    11:00 +23°C° 0.3 mm 4 mps 744 mmHg 67%
    12:00 +23°C° 0.4 mm 4 mps 744 mmHg 64%
    13:00 +23°C° 0.4 mm 4 mps 744 mmHg 62%
    14:00 +25°C° 0.4 mm 4 mps 744 mmHg 59%
    15:00 +23°C° 0.3 mm 4 mps 744 mmHg 61%
    16:00 +23°C° 0.3 mm 4 mps 744 mmHg 64%
    17:00 +22°C° 0.3 mm 4 mps 744 mmHg 66%
    18:00 +20°C° 0.1 mm 3 mps 744 mmHg 71%
    19:00 +19°C° 0.1 mm 3 mps 744 mmHg 75%
    20:00 +17°C° 0.1 mm 2 mps 744 mmHg 80%
    21:00 +16°C° 0 mm 2 mps 744 mmHg 82%
    22:00 +15°C° 0 mm 2 mps 744 mmHg 84%
    23:00 +14°C° 0 mm 1 mps 745 mmHg 86%

    26 May, Sunday

    Time Temperature Precipitation Wind Pressure Humidity
    00:00 +14°C° 0 mm 2 mps 745 mmHg 88%
    01:00 +13°C° 0 mm 2 mps 745 mmHg 91%
    02:00 +13°C° 0 mm 2 mps 745 mmHg 93%
    03:00 +13°C° 0 mm 2 mps 745 mmHg 94%
    04:00 +12°C° 0 mm 2 mps 745 mmHg 95%
    05:00 +12°C° 0 mm 2 mps 746 mmHg 96%
    06:00 +14°C° 0 mm 2 mps 746 mmHg 88%
    07:00 +15°C° 0 mm 2 mps 746 mmHg 81%
    08:00 +17°C° 0 mm 2 mps 746 mmHg 73%
    09:00 +18°C° 0 mm 2 mps 746 mmHg 67%
    10:00 +19°C° 0 mm 3 mps 746 mmHg 61%
    11:00 +20°C° 0 mm 3 mps 746 mmHg 56%
    12:00 +21°C° 0 mm 4 mps 745 mmHg 53%
    13:00 +21°C° 0 mm 4 mps 745 mmHg 51%
    14:00 +22°C° 0 mm 5 mps 745 mmHg 48%
    15:00 +22°C° 0 mm 5 mps 745 mmHg 50%
    16:00 +22°C° 0 mm 4 mps 745 mmHg 52%
    17:00 +21°C° 0 mm 4 mps 744 mmHg 54%
    18:00 +20°C° 0.2 mm 4 mps 744 mmHg 63%
    19:00 +18°C° 0.2 mm 3 mps 744 mmHg 73%
    20:00 +16°C° 0.2 mm 3 mps 744 mmHg 83%
    21:00 +14°C° 0 mm 3 mps 745 mmHg 87%
    22:00 +15°C° 0 mm 2 mps 745 mmHg 90%
    23:00 +14°C° 0 mm 2 mps 745 mmHg 94%

    27 May, Monday

    Time Temperature Precipitation Wind Pressure Humidity
    00:00 +13°C° 0 mm 2 mps 745 mmHg 94%
    01:00 +13°C° 0 mm 2 mps 746 mmHg 94%
    02:00 +12°C° 0 mm 2 mps 746 mmHg 95%
    03:00 +12°C° 0 mm 2 mps 746 mmHg 94%
    04:00 +12°C° 0 mm 2 mps 746 mmHg 93%
    05:00 +10°C° 0 mm 3 mps 747 mmHg 92%
    06:00 +12°C° 0 mm 3 mps 747 mmHg 84%
    07:00 +13°C° 0 mm 3 mps 747 mmHg 76%
    08:00 +16°C° 0 mm 3 mps 748 mmHg 68%
    09:00 +17°C° 0 mm 3 mps 748 mmHg 64%
    10:00 +18°C° 0 mm 3 mps 748 mmHg 60%
    11:00 +20°C° 0 mm 4 mps 748 mmHg 56%
    12:00 +21°C° 0 mm 3 mps 748 mmHg 54%
    13:00 +21°C° 0 mm 3 mps 748 mmHg 53%
    14:00 +22°C° 0 mm 3 mps 748 mmHg 51%
    15:00 +22°C° 0 mm 3 mps 747 mmHg 52%
    16:00 +23°C° 0 mm 2 mps 747 mmHg 53%
    17:00 +24°C° 0 mm 2 mps 747 mmHg 53%
    18:00 +21°C° 0 mm 2 mps 747 mmHg 60%
    19:00 +20°C° 0 mm 1 mps 747 mmHg 66%
    20:00 +19°C° 0 mm 1 mps 747 mmHg 72%
    21:00 +18°C° 0 mm 1 mps 747 mmHg 74%
    22:00 +16°C° 0 mm 2 mps 747 mmHg 76%
    23:00 +16°C° 0 mm 2 mps 747 mmHg 78%

    28 May, Tuesday

    Time Temperature Precipitation Wind Pressure Humidity
    00:00 +16°C° 0 mm 2 mps 747 mmHg 78%
    01:00 +17°C° 0 mm 3 mps 746 mmHg 79%
    02:00 +17°C° 0 mm 3 mps 746 mmHg 79%
    03:00 +17°C° 0.9 mm 3 mps 745 mmHg 84%
    04:00 +17°C° 0.9 mm 4 mps 745 mmHg 90%
    05:00 +17°C° 0.9 mm 4 mps 744 mmHg 95%
    06:00 +17°C° 1.3 mm 4 mps 744 mmHg 94%
    07:00 +17°C° 1.3 mm 5 mps 744 mmHg 93%
    08:00 +19°C° 1.3 mm 5 mps 744 mmHg 92%
    09:00 +21°C° 0 mm 5 mps 743 mmHg 83%
    10:00 +23°C° 0 mm 5 mps 743 mmHg 74%
    11:00 +25°C° 0 mm 5 mps 743 mmHg 65%
    12:00 +26°C° 0.4 mm 5 mps 743 mmHg 66%
    13:00 +26°C° 0.4 mm 6 mps 743 mmHg 67%
    14:00 +26°C° 0.4 mm 6 mps 742 mmHg 68%
    15:00 +25°C° 1.6 mm 5 mps 742 mmHg 73%
    16:00 +23°C° 1.6 mm 4 mps 742 mmHg 77%
    17:00 +23°C° 1.6 mm 4 mps 742 mmHg 82%
    18:00 +22°C° 1.1 mm 3 mps 742 mmHg 85%
    19:00 +21°C° 1.1 mm 3 mps 742 mmHg 87%
    20:00 +20°C° 1.1 mm 2 mps 742 mmHg 90%
    21:00 +20°C° 0.2 mm 2 mps 742 mmHg 91%
    22:00 +19°C° 0.2 mm 2 mps 742 mmHg 93%
    23:00 +19°C° 0.2 mm 2 mps 742 mmHg 94%
    Show more